Jacksonville, FL

9:22 AM EDT on September 23, 2017 (GMT -0400)
Jacksonville International

Weather History for KJAX - February, 2014

Change the Weather History Date:

Monday, February 10, 2014

  Actual Average Record
Temperature  
Mean Temperature 57 °F 56 °F  
Max Temperature 73 °F 67 °F 84 °F (1957)
Min Temperature 40 °F 44 °F 26 °F (1979)
Degree Days  
Heating Degree Days 8 10  
Month to date heating degree days 70 105  
Since 1 July heating degree days 919 981  
Cooling Degree Days 0 1  
Month to date cooling degree days 12 5  
Year to date cooling degree days 21 16  
Growing Degree Days 6 (Base 50)    
Moisture  
Dew Point 45 °F    
Average Humidity 67    
Maximum Humidity 100    
Minimum Humidity 33    
Precipitation  
Precipitation 0.00 in 0.10 in 1.22 in (2011)
Month to date precipitation 1.04 1.07  
Year to date precipitation 8.01 4.37  
Snow  
Snow 0.00 in 0.00 in T in (1973)
Month to date snowfall 0.0 0.0  
Since 1 July snowfall 0.0 T  
Snow Depth 0.00 in    
Sea Level Pressure  
Sea Level Pressure 30.10 in    
Wind  
Wind Speed 3 mph (SW)    
Max Wind Speed 10 mph    
Max Gust Speed 14 mph    
Visibility 10 miles    
Events      
T = Trace of Precipitation, MM = Missing Value Source: NWS Daily Summary

Daily Weather History Graph

Daily Weather History Graph

Search for Another Location

Airport or City:

Trip Planner

Search our weather history database for the weather conditions in past years. The results will help you decide how hot, cold, wet, or windy it might be!

Date:

Astronomy

Feb. 10, 2014 Rise Set
Actual Time 7:11 AM EST 6:10 PM EST
Civil Twilight 6:46 AM EST 6:35 PM EST
Nautical Twilight 6:18 AM EST 7:04 PM EST
Astronomical Twilight 5:50 AM EST 7:32 PM EST
Moon 2:45 PM EST (2/10) 3:56 AM EST (2/10)
Length of Visible Light 11h 49m
Length of Day
10h 59m
Waxing Gibbous, 84% of the Moon is Illuminated
Feb 10
Waxing Gibbous
Feb 14
Full
Feb 22
Last Quarter
Mar 1
New
Mar 8
First Quarter

Hourly Weather History & Observations

Time (EST) Temp. Windchill Dew Point Humidity Pressure Visibility Wind Dir Wind Speed Gust Speed Precip Events Conditions
12:56 AM 45.0 °F - 42.1 °F 90% 30.09 in 10.0 mi Calm Calm - N/A   Clear
1:56 AM 44.1 °F - 41.0 °F 89% 30.10 in 10.0 mi Calm Calm - N/A   Clear
2:56 AM 43.0 °F - 41.0 °F 93% 30.10 in 10.0 mi Calm Calm - N/A   Clear
3:56 AM 41.0 °F 38.0 °F 39.0 °F 93% 30.10 in 10.0 mi West 4.6 mph - N/A   Clear
4:56 AM 41.0 °F - 39.0 °F 93% 30.11 in 10.0 mi Calm Calm - N/A   Clear
5:56 AM 39.9 °F - 39.0 °F 97% 30.13 in 10.0 mi Calm Calm - N/A   Clear
6:56 AM 39.9 °F - 39.9 °F 100% 30.11 in 10.0 mi Calm Calm - N/A   Mostly Cloudy
7:56 AM 45.0 °F - 44.1 °F 97% 30.14 in 10.0 mi Calm Calm - N/A   Mostly Cloudy
8:56 AM 52.0 °F - 48.9 °F 89% 30.15 in 10.0 mi Calm Calm - N/A   Mostly Cloudy
9:56 AM 57.9 °F - 51.1 °F 78% 30.15 in 10.0 mi Calm Calm - N/A   Mostly Cloudy
10:56 AM 64.0 °F - 50.0 °F 60% 30.15 in 10.0 mi NW 5.8 mph - N/A   Partly Cloudy
11:56 AM 66.0 °F - 48.0 °F 52% 30.13 in 10.0 mi NW 3.5 mph - N/A   Partly Cloudy
12:56 PM 69.1 °F - 48.9 °F 49% 30.11 in 10.0 mi West 4.6 mph - N/A   Partly Cloudy
1:56 PM 71.1 °F - 46.9 °F 42% 30.07 in 10.0 mi Calm Calm - N/A   Partly Cloudy
2:56 PM 71.1 °F - 45.0 °F 39% 30.05 in 10.0 mi Variable 4.6 mph - N/A   Partly Cloudy
3:56 PM 73.0 °F - 43.0 °F 34% 30.04 in 10.0 mi SSW 5.8 mph - N/A   Partly Cloudy
4:56 PM 71.1 °F - 42.1 °F 35% 30.04 in 10.0 mi WSW 4.6 mph - N/A   Partly Cloudy
5:56 PM 64.9 °F - 48.9 °F 56% 30.06 in 10.0 mi SE 8.1 mph - N/A   Clear
6:56 PM 60.1 °F - 48.0 °F 64% 30.07 in 10.0 mi SE 8.1 mph - N/A   Clear
7:56 PM 55.9 °F - 48.0 °F 75% 30.08 in 10.0 mi SSE 5.8 mph - N/A   Clear
8:56 PM 54.0 °F - 48.0 °F 80% 30.09 in 10.0 mi SSE 4.6 mph - N/A   Clear
9:56 PM 55.0 °F - 48.0 °F 77% 30.09 in 10.0 mi Calm Calm - N/A   Clear
10:56 PM 54.0 °F - 48.0 °F 80% 30.08 in 10.0 mi Calm Calm - N/A   Clear
11:56 PM 53.1 °F - 48.0 °F 83% 30.09 in 10.0 mi West 3.5 mph - N/A   Clear